📊 Raw Sensor Data

Showing records 52501 to 52525 of 85,288 total

ID Distance (ft) Battery V Battery A Int Temp (°F) Int Humid (%) Ext Temp (°F) Solar V RSSI SNR Time Stamp
32800 13.3 3.73 -5 49 38 50 0.00 -81 8 02/19/2025 03:45 AM
32799 13.3 3.73 -5 49 38 50 0.00 -83 8 02/19/2025 03:30 AM
32798 13.3 3.77 -5 49 38 50 0.10 -80 7 02/19/2025 03:15 AM
32797 13.3 3.73 -5 48 38 49 0.00 -80 7 02/19/2025 03:00 AM
32796 13.3 3.73 -5 48 38 49 0.00 -80 8 02/19/2025 02:45 AM
32795 13.3 3.77 -5 48 38 49 0.00 -80 9 02/19/2025 02:30 AM
32794 13.3 3.77 -5 49 38 50 0.00 -81 8 02/19/2025 02:15 AM
32793 13.3 3.73 -5 49 38 50 0.00 -80 8 02/19/2025 02:00 AM
32792 13.3 3.73 -5 49 38 50 0.00 -80 7 02/19/2025 01:45 AM
32791 13.3 3.73 -5 48 38 49 0.10 -82 8 02/19/2025 01:30 AM
32790 13.3 3.77 -5 49 38 49 0.10 -80 8 02/19/2025 01:15 AM
32789 13.3 3.73 -5 50 38 49 0.00 -81 8 02/19/2025 01:00 AM
32788 13.3 3.77 -5 50 37 51 0.00 -82 8 02/19/2025 12:45 AM
32787 13.2 3.73 -5 50 38 52 0.00 -81 8 02/19/2025 12:30 AM
32786 13.2 3.78 -5 49 38 51 0.00 -82 8 02/19/2025 12:15 AM
32785 13.2 3.74 -5 49 38 50 0.00 -82 8 02/19/2025 12:00 AM
32784 13.2 3.74 -5 49 38 50 0.10 -79 8 02/18/2025 11:45 PM
32783 13.2 3.74 -5 49 38 50 0.00 -83 8 02/18/2025 11:30 PM
32782 13.2 3.69 -5 49 38 50 0.10 -82 8 02/18/2025 11:15 PM
32781 13.3 3.73 -5 49 38 50 0.00 -82 8 02/18/2025 11:00 PM
32780 13.3 3.74 -5 49 38 50 0.00 -82 8 02/18/2025 10:45 PM
32779 13.2 3.78 -5 49 38 51 0.00 -83 8 02/18/2025 10:30 PM
32778 13.2 3.74 -5 50 38 50 0.00 -83 7 02/18/2025 10:15 PM
32777 13.2 3.79 -5 50 38 51 0.00 -82 8 02/18/2025 10:00 PM
32776 13.2 3.79 -5 50 39 51 0.00 -80 7 02/18/2025 09:45 PM